Weather History for Blair, NE

Change the Weather History Date:

Sunday, June 22, 2014

  Actual Average (KOMA) Record (KOMA)
Temperature  
Mean Temperature 71 °F 74 °F  
Max Temperature 77 °F 85 °F 100 °F (1988)
Min Temperature 65 °F 63 °F 46 °F (1972)
Degree Days  
Heating Degree Days 0 0  
Month to date heating degree days 15  
Since 1 June heating degree days 15  
Since 1 July heating degree days 6165  
Cooling Degree Days 6 9  
Month to date cooling degree days 147  
Year to date cooling degree days 229  
Since 1 June cooling degree days 147  
Growing Degree Days 21 (Base 50)    
Moisture  
Dew Point 66 °F    
Average Humidity 78    
Maximum Humidity 94    
Minimum Humidity 64    
Precipitation  
Precipitation 0.02 in 0.13 in 4.07 in (1994)
Month to date precipitation 3.16  
Year to date precipitation 14.44  
Snow  
Snow 0.00 in 0.00 in - ()
Month to date snowfall 0.0  
Since 1 July snowfall 26.4  
Snow Depth -    
Sea Level Pressure  
Sea Level Pressure 29.85 in    
Wind  
Wind Speed 8 mph (ENE)    
Max Wind Speed 21 mph    
Max Gust Speed 30 mph    
Visibility 10 miles    
Events Rain , Thunderstorm    
T = Trace of Precipitation, MM = Missing Value Source: NWS Daily Summary

Daily Weather History Graph

Daily Weather History Graph

Search for Another Location

Airport:

Trip Planner

Search our weather history database for the weather conditions in past years. The results will help you decide how hot, cold, wet, or windy it might be!

Date:

Astronomy

Jun. 22, 2014 Rise Set
Actual Time 5:51 AM CDT 9:01 PM CDT
Civil Twilight 5:17 AM CDT 9:35 PM CDT
Nautical Twilight 4:33 AM CDT 10:19 PM CDT
Astronomical Twilight 3:41 AM CDT 11:11 PM CDT
Moon 2:42 AM CDT (6/22) 4:41 PM CDT (6/22)
Length of Visible Light 16h 18m
Length of Day
15h 10m
Waning Crescent, 20% of the Moon is Illuminated
Jun 22
Waning Crescent
Jun 27
New
Jul 5
First Quarter
Jul 12
Full
Jul 18
Last Quarter

Hourly Weather History & Observations

Time (CDT) Temp. Dew Point Humidity Pressure Visibility Wind Dir Wind Speed Gust Speed Precip Events Conditions
12:15 AM 73.8 °F 67.3 °F 80% 29.87 in 10.0 mi East 4.6 mph - N/A   Clear
12:35 AM 73.0 °F 67.6 °F 83% 29.86 in 10.0 mi ESE 5.8 mph - N/A   Clear
12:55 AM 73.4 °F 68.0 °F 83% 29.85 in 10.0 mi SE 8.1 mph - N/A   Clear
1:15 AM 73.4 °F 68.0 °F 83% 29.85 in 10.0 mi SE 6.9 mph - N/A   Clear
1:35 AM 73.9 °F 68.4 °F 83% 29.84 in 10.0 mi SE 5.8 mph - N/A   Clear
1:55 AM 74.7 °F 68.5 °F 81% 29.83 in 10.0 mi SSE 9.2 mph - N/A   Clear
2:15 AM 75.2 °F 68.4 °F 79% 29.82 in 10.0 mi SSE 10.4 mph - N/A   Clear
2:35 AM 75.6 °F 68.0 °F 77% 29.82 in 10.0 mi SSE 9.2 mph - N/A   Clear
2:55 AM 75.2 °F 68.0 °F 78% 29.81 in 10.0 mi SSE 8.1 mph - N/A   Clear
3:15 AM 75.2 °F 67.5 °F 77% 29.81 in 10.0 mi SSE 8.1 mph - N/A   Clear
3:35 AM 75.2 °F 67.3 °F 76% 29.81 in 10.0 mi SSE 9.2 mph - N/A   Scattered Clouds
3:55 AM 74.7 °F 67.3 °F 78% 29.81 in 10.0 mi SSE 8.1 mph - N/A   Scattered Clouds
4:15 AM 74.3 °F 67.1 °F 78% 29.79 in 10.0 mi South 10.4 mph - N/A   Scattered Clouds
4:35 AM 74.3 °F 67.1 °F 78% 29.78 in 10.0 mi South 9.2 mph - N/A   Clear
4:55 AM 74.3 °F 67.1 °F 78% 29.78 in 10.0 mi SSE 10.4 mph - N/A   Clear
5:15 AM 74.3 °F 67.1 °F 78% 29.79 in 10.0 mi SSE 10.4 mph - N/A   Clear
5:35 AM 73.8 °F 67.3 °F 80% 29.81 in 10.0 mi SSW 12.7 mph 18.4 mph N/A Thunderstorm Mostly Cloudy
5:55 AM 75.4 °F 66.7 °F 74% 29.82 in 10.0 mi WSW 20.7 mph 24.2 mph N/A Thunderstorm Overcast
6:15 AM 73.6 °F 65.1 °F 75% 29.84 in 10.0 mi West 15.0 mph 23.0 mph N/A Thunderstorm Unknown
6:35 AM 68.9 °F 63.5 °F 83% 29.85 in 10.0 mi NW 18.4 mph 29.9 mph N/A Thunderstorm Thunderstorm
6:55 AM 66.6 °F 62.6 °F 87% 29.86 in 10.0 mi North 15.0 mph 21.9 mph N/A Rain , Thunderstorm Light Thunderstorms and Rain
7:15 AM 65.7 °F 63.1 °F 92% 29.85 in 10.0 mi North 16.1 mph 23.0 mph N/A Rain Light Rain
7:35 AM 65.8 °F 63.7 °F 93% 29.88 in 10.0 mi North 12.7 mph 21.9 mph N/A   Overcast
7:55 AM 66.2 °F 64.4 °F 94% 29.85 in 10.0 mi NE 17.3 mph - N/A   Overcast
8:15 AM 66.6 °F 64.4 °F 93% 29.88 in 10.0 mi NE 16.1 mph 19.6 mph N/A   Overcast
8:35 AM 66.4 °F 63.3 °F 90% 29.88 in 10.0 mi NNE 10.4 mph 17.3 mph N/A   Scattered Clouds
8:55 AM 66.4 °F 63.0 °F 89% 29.88 in 10.0 mi NNE 13.8 mph - N/A   Scattered Clouds
9:15 AM 66.6 °F 63.5 °F 90% 29.89 in 10.0 mi NE 8.1 mph - N/A   Mostly Cloudy
9:35 AM 66.9 °F 63.5 °F 89% 29.89 in 10.0 mi NE 9.2 mph - N/A Rain Light Rain
9:55 AM 66.9 °F 63.7 °F 89% 29.86 in 10.0 mi ENE 8.1 mph - N/A Rain Light Rain
10:15 AM 67.8 °F 64.2 °F 88% 29.85 in 10.0 mi East 11.5 mph - N/A   Scattered Clouds
10:35 AM 69.1 °F 64.4 °F 85% 29.85 in 10.0 mi ESE 6.9 mph - N/A   Clear
10:55 AM 70.2 °F 64.4 °F 82% 29.87 in 10.0 mi SSE 6.9 mph - N/A   Clear
11:15 AM 70.7 °F 64.8 °F 81% 29.87 in 10.0 mi SE 5.8 mph - N/A   Clear
11:35 AM 71.8 °F 65.1 °F 79% 29.86 in 10.0 mi SSE 4.6 mph - N/A   Clear
11:55 AM 72.7 °F 65.1 °F 77% 29.87 in 10.0 mi SSE 6.9 mph - N/A   Scattered Clouds
12:15 PM 72.9 °F 66.0 °F 79% 29.88 in 10.0 mi South 9.2 mph - N/A   Mostly Cloudy
12:35 PM 73.8 °F 66.4 °F 78% 29.87 in 10.0 mi SSE 9.2 mph - N/A   Scattered Clouds
12:55 PM 74.7 °F 66.9 °F 77% 29.88 in 10.0 mi SE 6.9 mph - N/A   Mostly Cloudy
1:15 PM 75.2 °F 66.4 °F 74% 29.88 in 10.0 mi South 6.9 mph - N/A   Mostly Cloudy
1:35 PM 75.6 °F 66.2 °F 73% 29.88 in 10.0 mi SSW 3.5 mph - N/A   Overcast
1:55 PM 75.2 °F 65.7 °F 72% 29.87 in 10.0 mi South 4.6 mph - N/A   Overcast
2:15 PM 76.1 °F 66.2 °F 71% 29.86 in 10.0 mi WSW 3.5 mph - N/A   Mostly Cloudy
2:35 PM 76.1 °F 65.5 °F 70% 29.85 in 10.0 mi WSW 6.9 mph - N/A   Mostly Cloudy
2:55 PM 77.2 °F 65.8 °F 68% 29.85 in 10.0 mi WSW 6.9 mph - N/A   Scattered Clouds
3:15 PM 77.0 °F 66.4 °F 70% 29.85 in 10.0 mi NW 11.5 mph 16.1 mph N/A   Mostly Cloudy
3:35 PM 71.2 °F 66.4 °F 85% 29.86 in 10.0 mi North 11.5 mph 18.4 mph N/A Rain Rain
3:55 PM 70.7 °F 67.1 °F 88% 29.87 in 10.0 mi North 9.2 mph - 0.02 in   Overcast
4:15 PM 73.4 °F 68.5 °F 85% 29.87 in 10.0 mi North 8.1 mph - N/A   Overcast
4:35 PM 75.6 °F 68.0 °F 77% 29.87 in 10.0 mi NNW 16.1 mph 19.6 mph N/A   Overcast
4:55 PM 76.1 °F 64.8 °F 68% 29.87 in 10.0 mi North 11.5 mph 21.9 mph N/A   Mostly Cloudy
5:15 PM 76.6 °F 64.9 °F 67% 29.86 in 10.0 mi North 12.7 mph - N/A   Scattered Clouds
5:35 PM 76.1 °F 64.9 °F 68% 29.85 in 10.0 mi North 10.4 mph - N/A   Clear
5:55 PM 76.8 °F 65.3 °F 67% 29.84 in 10.0 mi North 9.2 mph - N/A   Clear
6:15 PM 77.2 °F 64.8 °F 65% 29.83 in 10.0 mi North 11.5 mph - N/A   Clear
6:35 PM 77.2 °F 64.6 °F 65% 29.83 in 10.0 mi North 11.5 mph - N/A   Clear
6:55 PM 77.2 °F 64.4 °F 65% 29.83 in 10.0 mi North 8.1 mph - N/A   Clear
7:15 PM 77.0 °F 64.0 °F 64% 29.84 in 10.0 mi North 8.1 mph - N/A   Clear
7:35 PM 76.1 °F 64.4 °F 67% 29.83 in 10.0 mi NNE 6.9 mph - N/A   Clear
7:55 PM 75.4 °F 64.6 °F 69% 29.84 in 10.0 mi North 6.9 mph - N/A   Clear
8:15 PM 75.2 °F 64.2 °F 69% 29.86 in 10.0 mi North 5.8 mph - N/A   Clear
8:35 PM 73.9 °F 64.4 °F 72% 29.86 in 10.0 mi North 5.8 mph - N/A   Clear
8:55 PM 72.7 °F 64.4 °F 75% 29.85 in 10.0 mi North 4.6 mph - N/A   Clear
9:35 PM 71.4 °F 64.4 °F 78% 29.86 in 10.0 mi Calm Calm - N/A   Clear
9:55 PM 71.2 °F 64.4 °F 79% 29.88 in 10.0 mi Calm Calm - N/A   Clear
10:15 PM 70.7 °F 64.6 °F 81% 29.88 in 10.0 mi Calm Calm - N/A   Clear
10:35 PM 71.1 °F 64.0 °F 78% 29.88 in 10.0 mi Calm Calm - N/A   Clear
10:55 PM 70.7 °F 64.2 °F 80% 29.88 in 10.0 mi North 3.5 mph - N/A   Clear
11:15 PM 70.2 °F 64.0 °F 81% 29.88 in 10.0 mi North 3.5 mph - N/A   Clear
11:35 PM 70.2 °F 63.9 °F 80% 29.88 in 10.0 mi North 3.5 mph - N/A   Clear
11:55 PM 70.2 °F 64.2 °F 81% 29.88 in 10.0 mi North 3.5 mph - N/A   Clear